Погода Мыс Биллингс

Погода Мыс Биллингс : погода сейчас, прогноз погоды и архив. Всё, что Вы хотите узнать о погоде Мыс Биллингс!

Поиск расширенной информации на нашем сайте:

Другие новости

Новости СМИ2

Главная страница сайта

Новости сайта

03.07.2017

Напоминаем, что на нашем специализированном сайте Метеоцентр.Азия вы можете получить высокодетализированные автоматические прогнозы погоды по пунктам России, СНГ и мира в авиационном формате (включающие направление и скорость ветра, видимость, явления погоды, количество и форму облачности, нижнюю и верхнюю границу облачности).


Погода Мыс Биллингс - сегодня

Время (UTC), дата Ветер
(°,м/с) 
Видим.   Явления Облачность Т
(°С)
Тd
(°С)
f(%) Тe
(°С)
Pmin
(гПа)
dP
(гПа)
Po
(мм)
O2
(г/м3)
Тmin Tmax R s Состояние
почвы
12 22.09.17 140 (ЮВ) 2{04}  20000 м    ясно 
-0.7 -2 91 -2  1019  -0.1  764  309           
15 22.09.17 140 (ЮВ) 2{04}  20000 м    ясно 
-1.2 -2.5 91 -2  1018.7  -0.3  764  309           
18 22.09.17 180 (Ю) 2{04}  20000 м    ясно 
-1.6 -3 90 -3  1018.4  -0.3  764  310  -1.6         
21 22.09.17 140 (ЮВ) 2{04}  20000 м    ясно 
+1.4 -0.3 88 +1  1018.5  0.1  764  306           
00 23.09.17 150 (ЮВ) 3{05}  20000 м    ясно 
+1.9 -0 87 1018.8  0.3  764  306           
03 23.09.17 120 (ЮВ) 5{07}  20000 м    ясно 
+2.7 +0.6 86 1018.3  -0.5  763  305           
06 23.09.17 120 (ЮВ) 4{06}  20000 м    ясно 
+1.5 +0.1 90 -1  1017.5  -0.8  763  306    +2.7       
09 23.09.17 120 (ЮВ) 3{05}  20000 м    ясно 
+0.2 -1.5 88 -2  1017.7  0.2  763  307           
12 23.09.17 160 (Ю) 2{04}  20000 м    ясно 
-2.2 85 -1  1017.6  -0.1  763  308           
15 23.09.17 160 (Ю) 3{05}  20000 м    ясно 
-0.8 -2.4 89 -3  1017.2  -0.4  763  308           
18 23.09.17 210 (ЮЗ) 2{04}  20000 м    ясно 
-1.3 -2.7 90 -2  1016.7  -0.5  762  309  -1.3         
21 23.09.17 190 (Ю) 5{07}  20000 м    3/0 верхняя 
[Ci fib]
-0.1 -1.5 90 -3  1016.6  -0.1  762  307           
00 24.09.17 210 (ЮЗ) 3{05}  20000 м    3/0 верхняя 
[Ci fib]
+2.3 -0.2 84 +1  1016.6  762  305           
03 24.09.17 290 (З) 4{06}  20000 м    6/0 верхняя 
[Ci fib]
+3.2 +1.4 88 +1  1017  0.4  762  303           
06 24.09.17 290 (З) 5{07}  20000 м    8/6 600 м верхняя 
[Sc|Ci fib]
+2.8 +1.2 89 1017.5  0.5  763  304    +3.2       
09 24.09.17 300 (СЗ) 5{07}  4000 м  дымка  8/5 600 м верхняя 
[Sc|Ci fib]
+1.3 -0.1 90 -1  1018.9  1.4  764  306           
12 24.09.17 310 (СЗ) 4{06}  4000 м  дымка  5/5 600 м 
[Sc]
+2.3 +1.3 93 1019.3  0.4  764  305           
15 24.09.17 360 (С) 3{05}  4000 м  дымка  5/5 600 м 
[Sc]
+2 +0.7 91 +1  1020  0.7  765  306           
18 24.09.17 330 (СЗ) 2{04}  10 км    6/6 600 м 
[Sc]
+1.8 +0.2 89 +1  1020.2  0.2  765  306  +1.3         
21 24.09.17 100 (В) 1{03}  10 км    10/10 300 м 
[St]
+1 -0.7 88 +2  1020.5  0.3  765  307           
00 25.09.17 150 (ЮВ) 2{04}  20000 м    9/9 600 м 
[Sc]
+1.3 -0.9 85 +1  1020  -0.5  765  307           
03 25.09.17 140 (ЮВ) 4{06}  20000 м    6/6 600 м 
[Sc]
+2.5 +0.8 89 1018.8  -1.2  764  305           
06 25.09.17 160 (Ю) 4{06}  20000 м    9/4 600 м средняя 
[Sc|Ac As]
+1.5 -0.2 88 -1  1018.1  -0.7  763  306    +2.5       
09 25.09.17 220 (ЮЗ) 3{05}  20000 м    9/6 600 м средняя 
[Sc|Ac trans]
+1.8 +0.5 91 1018.3  0.2  763  306           
12 25.09.17 220 (ЮЗ) 2{04}  10 км  слаб. дождь  10/10 600 м 
[Sc]
+1.9 +1.1 94 +1  1018.3  763  305           
Время (UTC), дата Ветер
(°,м/с) 
Видим.   Явления Облачность Т
(°С)
Тd
(°С)
f(%) Тe
(°С)
Pmin
(гПа)
dP
(гПа)
Po
(мм)
O2
(г/м3)
Тmin Tmax R s Состояние
почвы

Для получения пояснительной информации подведите курсор к названию столбца.

ПОГОДА Мыс Биллингс - архив

Всё, что Вы хотите узнать о погоде Мыс Биллингс - удобно и подробно!

Выберите нужную дату (начиная с 1 января 2015* года) и нажмите кнопку "Найти".
Будут отображены архивные сводки погоды по пункту Мыс Биллингс, начиная с указанной даты.


Отображать данные в формате CSV (для использования в таблицах Excel)


Внимание! Наш архив погоды предназначен исключительно для личного некоммерческого использования в познавательных целях. Если Вам необходимы официальные справки о состоянии погоды (для производственных, юридических, коммерческих и т.п. целей), обращайтесь в органы Росгидромета.

*Примечание: данная дата относится к архиву по метеостанциям СССР (Россия, СНГ, Балтия).
Архив по метеостанциям Зарубежной Европы и Азии (кроме Китая) хранится 10 дней, по другим регионам земного шара (Китай, Африка, Америка, Австралия, Океания) - 1 день.

Мыс Биллингс - район местоположения метеостанции


Название, широта, долгота, высота метеостанции:
Мыс Биллингс 69.88°ш. 175.76°д. 3 м над ур. моря [Российская Федерация]

Дополнительная информация

В oтличие oт бoльшинства пoгoдных сайтoв мы публикуем пoдрoбную метеoинфoрмацию в детальнoм прoфессиoнальнoм фoрмате.

Характеристики температуры и влажнoсти вoздуха измеряются на высoте 2 м в тени вдали oт зданий и деревьев.
Скoрoсть ветра измеряется на высoте 10 м (на урoвне рoста челoвека скoрoсть ветра ниже в 1.5-2 раза). Если метеoстанция нахoдится в гoрoде или в лесу, тo скoрoсть ветра занижена на 2-4 м/с пo сравнению с oткрытым местoм. Скoрoсть ветра над акватoриями крупных рек и oзёр, а также на вершинах хoлмoв на 2-5 м/с выше, чем в oбычных услoвиях.
Атмoсфернoе давление в разных тoчках местнoсти мoжет значительнo oтличаться oт давления на метеoстанции, в зависимoсти oт услoвий рельефа (при пoдъёме на 10 м давление пoнижается примернo на 1 мм рт.ст.).